FW1036 Weather Reports


time (UTC)temp
C
wind
direction
speed
KPH
gust
KPH
rain 1hr
cm
rain 24hr
cm
rain mn
cm
humidity
%
barometer
mb
20260505171503 11 190 6.4 16.1 0.00 0.00 0.00 64 1005.0
20260505170003 11 207 3.2 12.9 0.00 0.00 0.00 65 1004.9
20260505164501 10 217 3.2 12.9 0.00 0.00 0.00 63 1004.9
20260505163000 10 176 1.6 11.3 0.00 0.00 0.00 65 1004.8
20260505161605 10 232 6.4 11.3 0.00 0.00 0.00 63 1005.0
20260505153109 9 203 0.0 8.0 0.00 0.00 0.00 66 1005.0
20260505151555 9 238 1.6 4.8 0.00 0.00 0.00 65 1004.9
20260505124547 8 333 8.0 16.1 0.00 0.00 0.00 64 1002.5
20260505123041 8 339 4.8 16.1 0.00 0.00 0.00 63 1002.4
20260505121538 9 331 3.2 14.5 0.00 0.00 0.00 64 1002.4
20260505120047 8 340 4.8 12.9 0.00 0.00 0.00 65 1002.2
20260505114535 8 5 9.7 16.1 0.00 0.00 0.00 66 1002.1
20260505113035 8 15 9.7 16.1 0.00 0.00 0.00 67 1002.0
20260505111531 7 11 6.4 12.9 0.00 0.00 0.00 67 1001.7
20260505101520 7 9 9.7 16.1 0.00 0.00 0.00 69 1000.0
20260505100018 7 338 12.9 20.9 0.00 0.00 0.00 68 999.7
20260505094518 7 5 11.3 19.3 0.00 0.00 0.00 69 999.6
20260505093014 8 11 12.9 22.5 0.00 0.00 0.00 69 999.4
20260505091514 8 311 14.5 22.5 0.00 0.00 0.00 71 999.3
20260505090009 7 5 11.3 25.7 0.00 0.00 0.00 75 999.1
20260505084520 7 5 12.9 25.7 0.00 0.00 0.00 79 998.9
20260505083003 8 343 9.7 24.1 0.00 0.00 0.00 82 998.3
20260505081600 8 355 12.9 17.7 0.00 0.00 0.00 82 997.9
20260505080112 8 5 9.7 22.5 0.00 0.00 0.00 81 997.7
20260505074553 10 17 12.9 17.7 0.00 0.00 0.00 79 997.5
20260505073048 12 12 14.5 22.5 0.00 0.00 0.00 75 997.1
20260505071545 16 277 3.2 12.9 0.00 0.00 0.00 71 997.0
20260505070046 16 231 6.4 14.5 0.00 0.00 0.00 72 996.7
20260505064548 15 223 8.0 14.5 0.00 0.00 0.00 74 996.7
20260505063041 15 237 12.9 24.1 0.00 0.00 0.00 77 996.8
20260505061540 15 245 4.8 6.4 0.00 0.00 0.00 78 996.8
20260505060040 15 215 3.2 6.4 0.00 0.00 0.00 78 996.9
20260505054539 15 216 0.0 6.4 0.00 0.00 0.00 77 997.0
20260505053104 16 215 3.2 8.0 0.00 0.00 0.00 73 997.2
20260505051537 15 203 1.6 9.7 0.00 0.00 0.00 75 997.1
20260505041523 16 230 6.4 19.3 0.00 0.00 0.00 72 996.4
20260505040020 16 171 4.8 19.3 0.00 0.00 0.00 72 996.2
20260505034524 16 162 8.0 16.1 0.00 0.00 0.00 71 996.3
20260505033018 16 252 8.0 24.1 0.00 0.00 0.00 71 996.5
20260505031518 16 202 6.4 25.7 0.00 0.00 0.00 70 996.4
20260505030018 16 209 8.0 25.7 0.00 0.00 0.00 68 996.4
20260505024517 17 240 9.7 22.5 0.00 0.00 0.00 66 996.5
20260505023016 17 185 8.0 17.7 0.00 0.00 0.00 62 996.5
20260505021515 17 164 6.4 16.1 0.00 0.00 0.00 60 996.5
20260505020015 17 155 1.6 8.0 0.00 0.00 0.00 58 996.7
20260505014514 17 155 3.2 11.3 0.00 0.00 0.00 58 996.5
20260505013014 17 200 1.6 8.0 0.00 0.00 0.00 59 996.3
20260505011530 18 212 4.8 9.7 0.00 0.00 0.00 56 996.1
20260505010017 18 213 4.8 9.7 0.00 0.00 0.00 54 996.0
20260505004512 18 210 3.2 11.3 0.00 0.00 0.00 51 996.2
20260505003012 19 217 4.8 12.9 0.00 0.00 0.00 49 996.1
20260505001511 20 222 6.4 14.5 0.00 0.00 0.00 46 996.3
20260505000013 20 237 8.0 19.3 0.00 0.00 0.00 44 996.1
20260504234512 20 234 8.0 12.9 0.00 0.00 0.00 43 996.2
20260504233009 21 228 11.3 19.3 0.00 0.00 0.00 41 996.1
20260504231509 21 225 12.9 30.6 0.00 0.00 0.00 39 996.3
20260504230007 22 210 11.3 19.3 0.00 0.00 0.00 38 996.3
20260504224511 22 228 14.5 30.6 0.00 0.00 0.00 37 996.7
20260504223003 22 244 17.7 27.4 0.00 0.00 0.00 36 996.8
20260504221501 22 232 16.1 29.0 0.00 0.00 0.00 35 997.1
20260504214607 23 221 20.9 32.2 0.00 0.00 0.00 32 997.2
20260504213057 23 227 16.1 29.0 0.00 0.00 0.00 32 997.2
20260504211557 23 234 14.5 35.4 0.00 0.00 0.00 33 997.2
20260504210059 23 221 16.1 27.4 0.00 0.00 0.00 32 997.4
20260504204601 23 228 17.7 32.2 0.00 0.00 0.00 32 997.3
20260504203058 23 219 16.1 32.2 0.00 0.00 0.00 33 997.3
20260504201553 23 211 12.9 32.2 0.00 0.00 0.00 34 997.5
20260504200057 23 219 16.1 32.2 0.00 0.00 0.00 33 997.6
20260504194558 23 210 19.3 37.0 0.00 0.00 0.00 31 997.7
20260504193048 23 229 17.7 32.2 0.00 0.00 0.00 33 997.9
20260504191605 23 205 20.9 38.6 0.00 0.00 0.00 32 997.9
20260504190049 23 221 24.1 37.0 0.00 0.00 0.00 31 998.0
20260504184543 23 221 16.1 38.6 0.00 0.00 0.00 35 998.1
20260504183041 23 239 19.3 33.8 0.00 0.00 0.00 34 998.2
20260504181539 22 235 19.3 37.0 0.00 0.00 0.00 35 998.4
20260504180036 22 227 22.5 35.4 0.00 0.00 0.00 37 998.7
20260504174534 22 217 16.1 32.2 0.00 0.00 0.00 38 998.9
20260504173031 22 226 17.7 27.4 0.00 0.00 0.00 39 999.2